Location: Holiday Acres Laynes 2 Mobile Home Park
(26.7249°N, 81.8671°W)
Time: 07:21:14
(UTC+00:00)

Cosmos 2341 Rocket - Pass Details

Date: 25 November 2020
Orbit: 969 x 1003 km, 82.9° (Epoch: 22 January)

Event Time Altitude Azimuth Distance (km) Brightness Sun altitude
Rises 23:14:18 0° 358° (N) 3,690 6.8 -9.2°
Reaches altitude 10° 23:16:50 10° 1° (N) 2,744 6.2 -9.7°
Maximum altitude 23:23:06 68° 84° (E) 1,060 4.0 -11.0°
Drops below altitude 10° 23:29:24 10° 167° (SSE) 2,755 6.4 -12.4°
Sets 23:31:56 0° 170° (S) 3,706 7.1 -12.9°
